Weather History for Scottsbluff, NE

Change the Weather History Date:

Wednesday, May 13, 2009

  Actual Average Record
Temperature  
Mean Temperature 51 °F 56 °F  
Max Temperature 63 °F 71 °F 96 °F (1941)
Min Temperature 39 °F 42 °F 28 °F (1953)
Degree Days  
Heating Degree Days 14 9  
Month to date heating degree days 147  
Since 1 July heating degree days 6440  
Cooling Degree Days 0 1  
Month to date cooling degree days 2 2  
Year to date cooling degree days 2 4  
Growing Degree Days 1 (Base 50)    
Moisture  
Dew Point 23 °F    
Average Humidity 48    
Maximum Humidity 85    
Minimum Humidity 11    
Precipitation  
Precipitation 0.00 in 0.07 in 1.42 in (1961)
Month to date precipitation 0.55 0.89  
Year to date precipitation 5.51 4.73  
Snow  
Snow 0.00 in 0.00 in 1.00 in (1961)
Month to date snowfall 0.4  
Since 1 July snowfall 42.0  
Snow Depth -    
Sea Level Pressure  
Sea Level Pressure 29.84 in    
Wind  
Wind Speed 16 mph (NW)    
Max Wind Speed 39 mph    
Max Gust Speed 52 mph    
Visibility 10 miles    
Events      
T = Trace of Precipitation, MM = Missing Value Source: NWS Daily Summary

Daily Weather History Graph

Daily Weather History Graph

Search for Another Location

Airport:

Trip Planner

Search our weather history database for the weather conditions in past years. The results will help you decide how hot, cold, wet, or windy it might be!

Date:

Astronomy

May. 13, 2009 Rise Set
Actual Time 5:36 AM MDT 8:06 PM MDT
Civil Twilight 5:04 AM MDT 8:37 PM MDT
Nautical Twilight 4:25 AM MDT 9:17 PM MDT
Astronomical Twilight 3:40 AM MDT 10:01 PM MDT
Moon No Moon Rise 8:47 AM MDT (5/13)
Length of Visible Light 15h 33m
Length of Day
14h 30m
Waning Gibbous, 81% of the Moon is Illuminated
May 13
Waning Gibbous
May 17
Last Quarter
May 24
New
May 30
First Quarter
Jun 7
Full

Hourly Weather History & Observations

Time (MDT) Temp. Windchill Dew Point Humidity Pressure Visibility Wind Dir Wind Speed Gust Speed Precip Events Conditions
12:53 AM 48.9 °F - 39.9 °F 71% 29.57 in 10.0 mi WNW 5.8 mph - N/A   Clear
1:53 AM 50.0 °F - 33.1 °F 52% 29.57 in 10.0 mi NW 9.2 mph - N/A   Clear
2:53 AM 48.9 °F - 34.0 °F 56% 29.60 in 10.0 mi North 16.1 mph 25.3 mph N/A   Clear
3:53 AM 45.0 °F 42.6 °F 35.1 °F 68% 29.65 in 10.0 mi WNW 4.6 mph - N/A   Clear
4:53 AM 41.0 °F 36.4 °F 34.0 °F 76% 29.69 in 10.0 mi WNW 6.9 mph - N/A   Clear
5:53 AM 39.9 °F 35.8 °F 35.1 °F 83% 29.70 in 10.0 mi NW 5.8 mph - N/A   Clear
6:53 AM 44.1 °F - 37.0 °F 76% 29.74 in 10.0 mi Calm Calm - N/A   Clear
7:53 AM 48.0 °F - 34.0 °F 58% 29.76 in 10.0 mi WNW 10.4 mph - N/A   Clear
8:53 AM 53.1 °F - 30.0 °F 41% 29.78 in 10.0 mi NW 10.4 mph - N/A   Clear
9:53 AM 57.0 °F - 24.1 °F 28% 29.79 in 10.0 mi WNW 24.2 mph 40.3 mph N/A   Clear
10:53 AM 57.0 °F - 21.9 °F 26% 29.82 in 10.0 mi WNW 32.2 mph 43.7 mph N/A   Clear
11:53 AM 57.9 °F - 8.1 °F 14% 29.87 in 10.0 mi WNW 35.7 mph 46.0 mph N/A   Clear
12:53 PM 60.1 °F - 6.1 °F 12% 29.90 in 10.0 mi WNW 27.6 mph 43.7 mph N/A   Clear
1:53 PM 61.0 °F - 7.0 °F 12% 29.90 in 10.0 mi WNW 28.8 mph 43.7 mph N/A   Clear
2:53 PM 62.1 °F - 6.1 °F 11% 29.91 in 10.0 mi NW 35.7 mph 46.0 mph N/A   Clear
3:53 PM 63.0 °F - 8.1 °F 11% 29.91 in 10.0 mi West 25.3 mph 35.7 mph N/A   Clear
4:53 PM 63.0 °F - 12.0 °F 14% 29.93 in 10.0 mi WNW 24.2 mph 36.8 mph N/A   Clear
5:53 PM 62.1 °F - 10.9 °F 13% 29.94 in 10.0 mi WNW 24.2 mph 35.7 mph N/A   Clear
6:53 PM 60.1 °F - 10.9 °F 14% 29.94 in 10.0 mi NW 27.6 mph 36.8 mph N/A   Clear
7:53 PM 55.9 °F - 12.9 °F 18% 29.97 in 10.0 mi NNW 16.1 mph - N/A   Clear
8:53 PM 50.0 °F - 24.1 °F 36% 30.02 in 10.0 mi NNE 11.5 mph - N/A   Clear
9:53 PM 45.0 °F 41.8 °F 26.1 °F 48% 30.06 in 10.0 mi North 5.8 mph - N/A   Clear
10:53 PM 44.1 °F 42.5 °F 26.1 °F 49% 30.08 in 10.0 mi South 3.5 mph - N/A   Clear
11:53 PM 39.9 °F 34.5 °F 27.0 °F 60% 30.07 in 10.0 mi NNE 8.1 mph - N/A   Clear